Weather History for KAXA - October, 2012

Change the Weather History Date:

Sunday, October 28, 2012

  Actual Average Record
Temperature  
Mean Temperature 39 °F -  
Max Temperature 46 °F 52 °F 69 °F (2001)
Min Temperature 32 °F 34 °F 23 °F (2008)
Degree Days  
Heating Degree Days 26    
Moisture  
Dew Point 26 °F    
Average Humidity 64    
Maximum Humidity 80    
Minimum Humidity 43    
Precipitation  
Precipitation 0.00 in - - ()
Sea Level Pressure  
Sea Level Pressure 30.29 in    
Wind  
Wind Speed 7 mph (SSE)    
Max Wind Speed 15 mph    
Max Gust Speed 18 mph    
Visibility 10 miles    
Events      
Averages and records for this station are not official NWS values.
T = Trace of Precipitation, MM = Missing Value Source: NWS Daily Summary

Daily Weather History Graph

Daily Weather History Graph

Search for Another Location

Airport or City:

Trip Planner

Search our weather history database for the weather conditions in past years. The results will help you decide how hot, cold, wet, or windy it might be!

Date:

Astronomy

Oct. 28, 2012 Rise Set
Actual Time 7:47 AM CDT 6:13 PM CDT
Civil Twilight 7:17 AM CDT 6:43 PM CDT
Nautical Twilight 6:44 AM CDT 7:16 PM CDT
Astronomical Twilight 6:11 AM CDT 7:49 PM CDT
Moon 5:32 PM CDT (10/28) 6:40 AM CDT (10/28)
Length of Visible Light 11h 25m
Length of Day
10h 26m
Waxing Gibbous, 99% of the Moon is Illuminated
Oct 28
Waxing Gibbous
Oct 29
Full
Nov 6
Last Quarter
Nov 13
New
Nov 20
First Quarter

Hourly Weather History & Observations

Time (CDT) Temp. Windchill Dew Point Humidity Pressure Visibility Wind Dir Wind Speed Gust Speed Precip Events Conditions
12:15 AM 33.8 °F 28.6 °F 26.6 °F 75% 30.31 in - SE 5.8 mph - N/A   Overcast
12:55 AM 33.8 °F 28.6 °F 26.6 °F 75% 30.31 in 10.0 mi SE 5.8 mph - N/A   Overcast
1:15 AM 32.0 °F 27.5 °F 26.6 °F 80% 30.31 in 10.0 mi SE 4.6 mph - N/A   Overcast
1:35 AM 32.0 °F 27.5 °F 26.6 °F 80% 30.31 in 10.0 mi SE 4.6 mph - N/A   Overcast
1:55 AM 33.8 °F 29.6 °F 26.6 °F 75% 30.31 in 10.0 mi SE 4.6 mph - N/A   Overcast
2:15 AM 32.0 °F 27.5 °F 26.6 °F 80% 30.31 in 10.0 mi SE 4.6 mph - N/A   Overcast
2:35 AM 33.8 °F 28.6 °F 26.6 °F 75% 30.31 in 10.0 mi SE 5.8 mph - N/A   Overcast
2:55 AM 33.8 °F 28.6 °F 26.6 °F 75% 30.31 in 10.0 mi SE 5.8 mph - N/A   Overcast
3:15 AM 33.8 °F 28.6 °F 26.6 °F 75% 30.30 in 10.0 mi SE 5.8 mph - N/A   Overcast
3:35 AM 33.8 °F 28.6 °F 26.6 °F 75% 30.30 in 10.0 mi SE 5.8 mph - N/A   Overcast
3:55 AM 33.8 °F 27.7 °F 26.6 °F 75% 30.29 in 10.0 mi SE 6.9 mph - N/A   Overcast
4:15 AM 32.0 °F 26.4 °F 26.6 °F 80% 30.29 in 10.0 mi SE 5.8 mph - N/A   Overcast
4:35 AM 33.8 °F 28.6 °F 26.6 °F 75% 30.29 in 10.0 mi SE 5.8 mph - N/A   Overcast
4:55 AM 33.8 °F 28.6 °F 26.6 °F 75% 30.29 in 10.0 mi SE 5.8 mph - N/A   Overcast
5:15 AM 33.8 °F 28.6 °F 26.6 °F 75% 30.30 in 10.0 mi SE 5.8 mph - N/A   Overcast
5:35 AM 33.8 °F 28.6 °F 26.6 °F 75% 30.30 in 10.0 mi SE 5.8 mph - N/A   Overcast
5:55 AM 33.8 °F 27.7 °F 26.6 °F 75% 30.29 in 10.0 mi SSE 6.9 mph - N/A   Overcast
6:15 AM 33.8 °F 27.0 °F 26.6 °F 75% 30.29 in 10.0 mi SSE 8.1 mph - N/A   Overcast
6:35 AM 33.8 °F 27.0 °F 26.6 °F 75% 30.30 in 10.0 mi SSE 8.1 mph - N/A   Overcast
6:55 AM 33.8 °F 27.7 °F 26.6 °F 75% 30.30 in 10.0 mi SE 6.9 mph - N/A   Overcast
7:15 AM 33.8 °F 28.6 °F 26.6 °F 75% 30.30 in 10.0 mi SSE 5.8 mph - N/A   Overcast
7:35 AM 32.0 °F 26.4 °F 26.6 °F 80% 30.31 in 10.0 mi SSE 5.8 mph - N/A   Overcast
7:55 AM 33.8 °F 27.7 °F 26.6 °F 75% 30.32 in 10.0 mi SSE 6.9 mph - N/A   Overcast
8:15 AM 33.8 °F 27.7 °F 26.6 °F 75% 30.32 in 10.0 mi SE 6.9 mph - N/A   Overcast
8:35 AM 33.8 °F 28.6 °F 26.6 °F 75% 30.32 in 10.0 mi SE 5.8 mph - N/A   Overcast
8:55 AM 33.8 °F 27.7 °F 26.6 °F 75% 30.33 in 10.0 mi SE 6.9 mph - N/A   Overcast
9:35 AM 35.6 °F 28.6 °F 26.6 °F 70% 30.33 in 10.0 mi SSE 9.2 mph - N/A   Overcast
9:55 AM 35.6 °F 28.0 °F 26.6 °F 70% 30.33 in 10.0 mi SSE 10.4 mph - N/A   Overcast
10:15 AM 37.4 °F 31.4 °F 26.6 °F 65% 30.33 in 10.0 mi SSE 8.1 mph - N/A   Overcast
10:35 AM 37.4 °F 29.8 °F 26.6 °F 65% 30.33 in 10.0 mi South 11.5 mph - N/A   Overcast
10:55 AM 39.2 °F 32.0 °F 26.6 °F 61% 30.33 in 10.0 mi SSE 11.5 mph - N/A   Overcast
11:15 AM 39.2 °F 31.2 °F 26.6 °F 61% 30.32 in 10.0 mi South 13.8 mph - N/A   Overcast
11:35 AM 41.0 °F 33.9 °F 26.6 °F 57% 30.32 in 10.0 mi South 12.7 mph - N/A   Overcast
12:15 PM 42.8 °F 35.8 °F 26.6 °F 53% 30.31 in 10.0 mi South 13.8 mph - N/A   Mostly Cloudy
12:35 PM 44.6 °F 37.8 °F 28.4 °F 53% 30.31 in 10.0 mi South 15.0 mph - N/A   Mostly Cloudy
12:55 PM 42.8 °F 35.8 °F 26.6 °F 53% 30.30 in 10.0 mi South 13.8 mph - N/A   Mostly Cloudy
1:15 PM 42.8 °F 36.6 °F 26.6 °F 53% 30.30 in 10.0 mi South 11.5 mph 18.4 mph N/A   Overcast
1:35 PM 44.6 °F 38.1 °F 26.6 °F 49% 30.29 in 10.0 mi South 13.8 mph - N/A   Overcast
1:55 PM 46.4 °F 41.1 °F 28.4 °F 50% 30.28 in 10.0 mi South 11.5 mph - N/A   Mostly Cloudy
2:15 PM 46.4 °F 41.1 °F 26.6 °F 46% 30.27 in 10.0 mi SSE 11.5 mph 17.3 mph N/A   Partly Cloudy
2:35 PM 46.4 °F 41.5 °F 28.4 °F 50% 30.26 in 10.0 mi South 10.4 mph 17.3 mph N/A   Clear
2:55 PM 46.4 °F 40.7 °F 28.4 °F 50% 30.25 in 10.0 mi South 12.7 mph - N/A   Clear
3:15 PM 46.4 °F 41.1 °F 28.4 °F 50% 30.25 in - South 11.5 mph - N/A   Clear
3:35 PM 46.4 °F 41.1 °F 26.6 °F 46% 30.25 in 10.0 mi South 11.5 mph - N/A   Clear
3:55 PM 46.4 °F 41.9 °F 26.6 °F 46% 30.25 in 10.0 mi South 9.2 mph - N/A   Clear
4:15 PM 46.4 °F 41.5 °F 26.6 °F 46% 30.25 in 10.0 mi South 10.4 mph - N/A   Clear
4:35 PM 46.4 °F 40.4 °F 26.6 °F 46% 30.24 in 10.0 mi South 13.8 mph - N/A   Clear
4:55 PM 46.4 °F 41.5 °F 26.6 °F 46% 30.23 in 10.0 mi SSE 10.4 mph - N/A   Clear
5:15 PM 46.4 °F 41.9 °F 24.8 °F 43% 30.24 in 10.0 mi South 9.2 mph 15.0 mph N/A   Clear
5:35 PM 44.6 °F 39.7 °F 26.6 °F 49% 30.24 in 10.0 mi South 9.2 mph - N/A   Clear
5:55 PM 44.6 °F 40.2 °F 26.6 °F 49% 30.24 in 10.0 mi SSE 8.1 mph - N/A   Clear
6:15 PM 42.8 °F 38.6 °F 28.4 °F 57% 30.25 in 10.0 mi SSE 6.9 mph - N/A   Clear
6:35 PM 41.0 °F 37.1 °F 26.6 °F 57% 30.24 in 10.0 mi SE 5.8 mph - N/A   Clear
6:55 PM 41.0 °F 35.8 °F 26.6 °F 57% 30.24 in 10.0 mi SSE 8.1 mph - N/A   Scattered Clouds
7:15 PM 41.0 °F 36.4 °F 26.6 °F 57% 30.25 in 10.0 mi SSE 6.9 mph - N/A   Mostly Cloudy
7:35 PM 39.2 °F 33.0 °F 26.6 °F 61% 30.26 in 10.0 mi SE 9.2 mph - N/A   Scattered Clouds
7:55 PM 39.2 °F 34.2 °F 26.6 °F 61% 30.26 in 10.0 mi SE 6.9 mph - N/A   Mostly Cloudy
8:15 PM 39.2 °F 34.2 °F 26.6 °F 61% 30.26 in 10.0 mi SSE 6.9 mph - N/A   Overcast
8:35 PM 39.2 °F 33.6 °F 24.8 °F 56% 30.26 in 10.0 mi SSE 8.1 mph - N/A   Overcast
8:55 PM 39.2 °F 33.0 °F 24.8 °F 56% 30.26 in 10.0 mi SSE 9.2 mph - N/A   Overcast
9:15 PM 37.4 °F 30.3 °F 24.8 °F 60% 30.26 in 10.0 mi SSE 10.4 mph - N/A   Overcast
9:35 PM 39.2 °F 32.5 °F 24.8 °F 56% 30.26 in 10.0 mi SSE 10.4 mph - N/A   Mostly Cloudy
9:55 PM 37.4 °F 30.8 °F 24.8 °F 60% 30.27 in 10.0 mi SSE 9.2 mph - N/A   Mostly Cloudy
10:35 PM 35.6 °F 29.2 °F 24.8 °F 65% 30.27 in 10.0 mi SE 8.1 mph - N/A   Scattered Clouds
10:55 PM 35.6 °F 29.9 °F 24.8 °F 65% 30.27 in 10.0 mi SE 6.9 mph - N/A   Clear
11:15 PM 33.8 °F 27.7 °F 23.0 °F 65% 30.27 in 10.0 mi SE 6.9 mph - N/A   Clear
11:55 PM 33.8 °F 27.0 °F 23.0 °F 65% 30.27 in 10.0 mi SE 8.1 mph - N/A   Clear